Location: Broek
(53.2737°N, 5.9967°E)
Time: 21:17:43
(UTC+00:00)

Cosmos 1025 Rocket - Pass Details

Date: 10 October 2024
Orbit: 588 x 613 km, 82.5° (Epoch: 10 November)

Event Time Altitude Azimuth Distance (km) Brightness Sun altitude
Rises 19:08:15 0° 354° (N) 2,839 6.8 -21.2°
Reaches altitude 10° 19:10:39 10° 4° (N) 1,931 5.7 -21.6°
Enters shadow 19:13:04 26° 31° (NNE) 1,173 4.3 -21.9°
